KC0RPY Weather Reports


time (UTC)temp
C
wind
direction
speed
KPH
gust
KPH
rain 1hr
cm
rain 24hr
cm
rain mn
cm
humidity
%
barometer
mb
20260906182633 37 126 1.6 1.6 0.00 0.00 0.00 47 1015.3
20260906182129 36 142 4.8 4.8 0.00 0.00 0.00 48 1015.3
20260906181624 36 119 0.0 0.0 0.00 0.00 0.00 49 1015.7
20260906181120 36 137 0.0 0.0 0.00 0.00 0.00 50 1015.7
20260906180615 36 100 3.2 3.2 0.00 0.00 0.00 50 1015.7
20260906180109 36 146 3.2 4.8 0.00 0.00 0.00 49 1016.0
20260906175607 37 156 4.8 4.8 0.00 0.00 0.00 47 1016.0
20260906175103 36 143 0.0 0.0 0.00 0.00 0.00 50 1016.0
20260906174601 35 154 0.0 0.0 0.00 0.00 0.00 51 1016.0
20260906174055 35 151 1.6 3.2 0.00 0.00 0.00 52 1016.3
20260906173550 36 134 0.0 0.0 0.00 0.00 0.00 51 1016.3
20260906173046 36 136 0.0 0.0 0.00 0.00 0.00 51 1016.0
20260906172540 35 125 1.6 1.6 0.00 0.00 0.00 52 1016.0
20260906172036 36 121 4.8 4.8 0.00 0.00 0.00 51 1016.3
20260906171531 35 149 3.2 3.2 0.00 0.00 0.00 50 1016.7
20260906171027 36 96 1.6 3.2 0.00 0.00 0.00 50 1016.7
20260906170522 36 121 0.0 0.0 0.00 0.00 0.00 51 1016.7
20260906170021 35 156 4.8 4.8 0.00 0.00 0.00 53 1017.0
20260906165518 35 139 4.8 4.8 0.00 0.00 0.00 53 1016.7
20260906165013 34 122 4.8 4.8 0.00 0.00 0.00 53 1016.7
20260906164512 35 164 1.6 3.2 0.00 0.00 0.00 54 1017.0
20260906164009 35 153 0.0 0.0 0.00 0.00 0.00 54 1016.7
20260906163504 35 109 3.2 3.2 0.00 0.00 0.00 53 1016.7
20260906163004 35 121 6.4 9.7 0.00 0.00 0.00 53 1016.7
20260906162500 34 120 4.8 4.8 0.00 0.00 0.00 55 1017.0
20260906161950 35 130 6.4 8.0 0.00 0.00 0.00 54 1017.0
20260906161450 34 118 1.6 3.2 0.00 0.00 0.00 55 1017.0
20260906160948 35 143 6.4 8.0 0.00 0.00 0.00 56 1017.0
20260906160443 33 136 0.0 1.6 0.00 0.00 0.00 55 1016.7
20260906155941 33 140 0.0 0.0 0.00 0.00 0.00 56 1016.7
20260906155440 33 126 6.4 9.7 0.00 0.00 0.00 58 1016.7
20260906154936 33 121 3.2 8.0 0.00 0.00 0.00 56 1016.7
20260906154431 33 147 0.0 1.6 0.00 0.00 0.00 57 1016.7
20260906153929 33 158 6.4 9.7 0.00 0.00 0.00 58 1016.7
20260906153428 32 160 4.8 8.0 0.00 0.00 0.00 59 1016.7
20260906152923 32 139 6.4 8.0 0.00 0.00 0.00 60 1016.7
20260906152418 32 113 6.4 8.0 0.00 0.00 0.00 61 1016.7
20260906151917 32 145 3.2 3.2 0.00 0.00 0.00 61 1016.7
20260906151413 32 108 8.0 11.3 0.00 0.00 0.00 61 1016.7
20260906150909 31 135 1.6 1.6 0.00 0.00 0.00 61 1016.3
20260906150404 32 90 6.4 8.0 0.00 0.00 0.00 61 1016.3
20260906145903 32 100 3.2 3.2 0.00 0.00 0.00 62 1016.7
20260906145356 31 139 1.6 3.2 0.00 0.00 0.00 63 1016.7
20260906144851 31 107 4.8 4.8 0.00 0.00 0.00 63 1016.3
20260906144346 31 117 6.4 8.0 0.00 0.00 0.00 64 1016.7
20260906143847 31 130 1.6 3.2 0.00 0.00 0.00 63 1016.7
20260906143342 31 126 1.6 3.2 0.00 0.00 0.00 63 1016.7
20260906142838 30 114 0.0 0.0 0.00 0.00 0.00 65 1016.7
20260906142333 30 124 0.0 0.0 0.00 0.00 0.00 64 1016.7
20260906141833 30 122 6.4 8.0 0.00 0.00 0.00 65 1016.7
20260906141322 30 138 0.0 1.6 0.00 0.00 0.00 65 1016.7
20260906140820 30 129 1.6 1.6 0.00 0.00 0.00 65 1016.7
20260906140316 29 118 1.6 4.8 0.00 0.00 0.00 66 1016.7
20260906135813 30 139 1.6 1.6 0.00 0.00 0.00 66 1016.3
20260906135308 30 144 0.0 1.6 0.00 0.00 0.00 65 1016.7
20260906134804 29 144 0.0 0.0 0.00 0.00 0.00 66 1016.7
20260906134258 29 124 1.6 1.6 0.00 0.00 0.00 68 1016.3
20260906133754 29 139 0.0 1.6 0.00 0.00 0.00 66 1016.3
20260906133250 28 135 1.6 3.2 0.00 0.00 0.00 69 1016.3
20260906132745 28 104 4.8 4.8 0.00 0.00 0.00 68 1016.0
20260906132240 28 134 1.6 3.2 0.00 0.00 0.00 69 1016.0
20260906131735 27 111 6.4 8.0 0.00 0.00 0.00 70 1016.0
20260906131224 27 125 6.4 9.7 0.00 0.00 0.00 71 1016.0
20260906130720 27 114 4.8 4.8 0.00 0.00 0.00 71 1016.0
20260906130214 27 113 6.4 9.7 0.00 0.00 0.00 71 1016.0
20260906125713 26 108 3.2 8.0 0.00 0.00 0.00 72 1016.0
20260906125211 26 130 4.8 8.0 0.00 0.00 0.00 74 1015.7
20260906124707 26 136 3.2 3.2 0.00 0.00 0.00 74 1016.0
20260906124202 26 116 4.8 4.8 0.00 0.00 0.00 73 1015.7
20260906123700 26 121 4.8 4.8 0.00 0.00 0.00 74 1015.7
20260906123156 26 113 1.6 1.6 0.00 0.00 0.00 74 1015.3
20260906122655 26 112 4.8 4.8 0.00 0.00 0.00 74 1015.7
20260906122151 26 152 3.2 4.8 0.00 0.00 0.00 74 1015.7
20260906121647 26 136 3.2 3.2 0.00 0.00 0.00 74 1015.7
20260906121143 26 133 1.6 3.2 0.00 0.00 0.00 74 1015.7
20260906120639 26 141 3.2 4.8 0.00 0.00 0.00 74 1015.3
20260906120136 26 146 3.2 4.8 0.00 0.00 0.00 74 1015.3
20260906115631 26 122 4.8 4.8 0.00 0.00 0.00 74 1015.3
20260906115126 26 137 3.2 3.2 0.00 0.00 0.00 74 1015.3
20260906114619 26 144 4.8 4.8 0.00 0.00 0.00 73 1015.7
20260906114115 26 114 3.2 3.2 0.00 0.00 0.00 73 1015.3
20260906113615 26 131 3.2 3.2 0.00 0.00 0.00 73 1015.3
20260906113109 26 126 3.2 3.2 0.00 0.00 0.00 73 1015.3
20260906112604 26 134 1.6 1.6 0.00 0.00 0.00 74 1015.3
20260906112101 26 122 4.8 4.8 0.00 0.00 0.00 74 1015.0
20260906111600 26 103 3.2 4.8 0.00 0.00 0.00 74 1015.3
20260906111055 26 121 3.2 3.2 0.00 0.00 0.00 74 1015.3
20260906110554 26 123 4.8 4.8 0.00 0.00 0.00 74 1015.3
20260906110054 26 126 1.6 3.2 0.00 0.00 0.00 74 1015.0
20260906105548 26 128 3.2 3.2 0.00 0.00 0.00 73 1015.3
20260906105045 26 122 3.2 3.2 0.00 0.00 0.00 73 1015.3
20260906104543 26 116 4.8 4.8 0.00 0.00 0.00 74 1015.3
20260906104038 26 124 1.6 1.6 0.00 0.00 0.00 73 1015.3
20260906103536 26 119 3.2 3.2 0.00 0.00 0.00 73 1015.0
20260906103031 26 124 1.6 3.2 0.00 0.00 0.00 73 1015.0
20260906102526 26 120 3.2 3.2 0.00 0.00 0.00 73 1015.0
20260906102021 26 141 1.6 1.6 0.00 0.00 0.00 72 1015.0
20260906101516 26 126 3.2 3.2 0.00 0.00 0.00 72 1015.0
20260906101010 26 111 3.2 3.2 0.00 0.00 0.00 71 1015.3
20260906100506 26 111 4.8 4.8 0.00 0.00 0.00 71 1015.0
20260906100006 27 107 4.8 8.0 0.00 0.00 0.00 71 1015.0
20260906095500 27 121 1.6 3.2 0.00 0.00 0.00 71 1015.0
20260906094956 27 137 3.2 4.8 0.00 0.00 0.00 70 1015.0
20260906094455 27 123 3.2 3.2 0.00 0.00 0.00 70 1015.0
20260906093951 27 125 1.6 1.6 0.00 0.00 0.00 70 1014.5
20260906093447 27 120 4.8 4.8 0.00 0.00 0.00 70 1015.0
20260906092942 26 116 6.4 8.0 0.00 0.00 0.00 71 1015.0
20260906092441 26 123 1.6 3.2 0.00 0.00 0.00 72 1015.0
20260906091936 26 123 1.6 3.2 0.00 0.00 0.00 73 1015.0
20260906091432 26 120 4.8 4.8 0.00 0.00 0.00 75 1015.0
20260906090929 26 125 0.0 0.0 0.00 0.00 0.00 73 1015.0
20260906090424 26 126 1.6 1.6 0.00 0.00 0.00 73 1015.0
20260906085919 26 125 3.2 3.2 0.00 0.00 0.00 73 1014.5
20260906085417 26 131 1.6 1.6 0.00 0.00 0.00 73 1015.0
20260906084917 27 129 3.2 3.2 0.00 0.00 0.00 72 1014.5
20260906084412 27 131 1.6 1.6 0.00 0.00 0.00 72 1014.5
20260906083911 27 131 1.6 1.6 0.00 0.00 0.00 72 1014.5
20260906083407 27 127 1.6 1.6 0.00 0.00 0.00 72 1014.2
20260906082906 27 134 1.6 1.6 0.00 0.00 0.00 72 1014.5
20260906082401 27 124 1.6 3.2 0.00 0.00 0.00 72 1014.5
20260906081858 27 125 1.6 1.6 0.00 0.00 0.00 72 1014.5
20260906081353 27 131 1.6 1.6 0.00 0.00 0.00 71 1014.5
20260906080849 27 130 1.6 1.6 0.00 0.00 0.00 71 1014.5
20260906080345 27 120 3.2 3.2 0.00 0.00 0.00 70 1014.5
20260906075844 27 121 3.2 3.2 0.00 0.00 0.00 70 1014.2
20260906075339 27 131 1.6 1.6 0.00 0.00 0.00 70 1014.2
20260906074835 27 130 3.2 3.2 0.00 0.00 0.00 70 1014.2
20260906074334 27 125 1.6 1.6 0.00 0.00 0.00 69 1014.5
20260906073833 27 124 3.2 3.2 0.00 0.00 0.00 69 1014.5
20260906073328 27 127 3.2 3.2 0.00 0.00 0.00 69 1014.5
20260906072825 27 124 3.2 3.2 0.00 0.00 0.00 69 1014.5
20260906072320 28 127 1.6 1.6 0.00 0.00 0.00 68 1014.5
20260906071816 28 130 3.2 3.2 0.00 0.00 0.00 68 1014.5
20260906071316 28 126 1.6 3.2 0.00 0.00 0.00 68 1014.5
20260906070812 28 128 3.2 3.2 0.00 0.00 0.00 68 1015.0
20260906070308 28 130 1.6 1.6 0.00 0.00 0.00 68 1014.5
20260906065802 28 124 1.6 1.6 0.00 0.00 0.00 68 1014.5
20260906065257 28 129 1.6 1.6 0.00 0.00 0.00 68 1015.0
20260906064753 28 130 1.6 3.2 0.00 0.00 0.00 68 1014.5
20260906064249 28 129 1.6 3.2 0.00 0.00 0.00 68 1015.0
20260906063744 28 129 0.0 0.0 0.00 0.00 0.00 69 1015.0
20260906063239 28 125 3.2 3.2 0.00 0.00 0.00 68 1015.0
20260906062734 28 130 3.2 3.2 0.00 0.00 0.00 68 1015.0
20260906062233 28 127 3.2 3.2 0.00 0.00 0.00 68 1014.5
20260906061729 28 125 1.6 3.2 0.00 0.00 0.00 68 1014.5
20260906061226 28 131 1.6 3.2 0.00 0.00 0.00 68 1015.0
20260906060721 28 123 3.2 3.2 0.00 0.00 0.00 68 1015.0
20260906060218 28 126 1.6 3.2 0.00 0.00 0.00 68 1015.0
20260906055714 28 116 4.8 4.8 0.00 0.00 0.00 68 1015.0
20260906055208 28 115 3.2 4.8 0.00 0.00 0.00 67 1015.0
20260906054703 28 124 3.2 3.2 0.00 0.00 0.00 67 1015.0
20260906054159 28 118 0.0 0.0 0.00 0.00 0.00 67 1015.0
20260906053655 28 121 0.0 0.0 0.00 0.00 0.00 67 1015.0
20260906053150 28 128 0.0 0.0 0.00 0.00 0.00 67 1015.0
20260906052645 28 115 3.2 3.2 0.00 0.00 0.00 67 1015.0
20260906052142 28 126 4.8 8.0 0.00 0.00 0.00 67 1015.0
20260906051638 28 119 3.2 3.2 0.00 0.00 0.00 67 1015.0
20260906051137 28 109 4.8 4.8 0.00 0.00 0.00 67 1015.0
20260906050633 29 123 4.8 4.8 0.00 0.00 0.00 67 1015.0
20260906050128 29 119 4.8 8.0 0.00 0.00 0.00 66 1015.0
20260906045627 29 119 3.2 3.2 0.00 0.00 0.00 66 1015.3
20260906045122 29 121 0.0 1.6 0.00 0.00 0.00 66 1015.0
20260906044618 29 118 6.4 8.0 0.00 0.00 0.00 66 1015.0
20260906044113 29 98 6.4 8.0 0.00 0.00 0.00 65 1015.0
20260906043609 29 110 4.8 4.8 0.00 0.00 0.00 66 1015.0
20260906043104 30 127 4.8 4.8 0.00 0.00 0.00 66 1015.0
20260906042604 30 118 1.6 3.2 0.00 0.00 0.00 66 1015.3
20260906042058 30 118 4.8 4.8 0.00 0.00 0.00 66 1015.0
20260906041554 30 124 3.2 4.8 0.00 0.00 0.00 66 1014.5
20260906041049 30 123 4.8 4.8 0.00 0.00 0.00 66 1015.0
20260906040544 30 117 4.8 4.8 0.00 0.00 0.00 65 1015.0
20260906040040 30 97 4.8 4.8 0.00 0.00 0.00 65 1014.5
20260906035535 30 110 4.8 4.8 0.00 0.00 0.00 65 1014.5
20260906035031 30 110 4.8 4.8 0.00 0.00 0.00 65 1015.0
20260906034530 30 133 3.2 4.8 0.00 0.00 0.00 65 1014.5
20260906034025 30 114 4.8 8.0 0.00 0.00 0.00 65 1014.5
20260906033520 30 121 4.8 4.8 0.00 0.00 0.00 65 1014.5
20260906033016 30 124 1.6 4.8 0.00 0.00 0.00 65 1014.5
20260906032513 30 129 3.2 3.2 0.00 0.00 0.00 65 1014.5
20260906032013 30 106 0.0 0.0 0.00 0.00 0.00 65 1014.5
20260906031509 30 130 3.2 4.8 0.00 0.00 0.00 65 1015.0
20260906031004 30 136 1.6 3.2 0.00 0.00 0.00 65 1014.2
20260906030457 30 121 0.0 0.0 0.00 0.00 0.00 64 1014.2
20260906025952 31 119 0.0 0.0 0.00 0.00 0.00 64 1014.2
20260906025446 31 129 1.6 3.2 0.00 0.00 0.00 63 1014.2
20260906024945 31 103 4.8 4.8 0.00 0.00 0.00 63 1013.9
20260906024444 31 122 4.8 8.0 0.00 0.00 0.00 63 1014.2
20260906023939 31 119 0.0 1.6 0.00 0.00 0.00 63 1014.2
20260906023435 31 127 3.2 3.2 0.00 0.00 0.00 62 1013.9
20260906022930 31 126 3.2 3.2 0.00 0.00 0.00 62 1013.9
20260906022426 31 123 0.0 0.0 0.00 0.00 0.00 62 1013.9
20260906021921 31 131 1.6 3.2 0.00 0.00 0.00 61 1013.9
20260906021421 31 117 0.0 0.0 0.00 0.00 0.00 61 1013.5
20260906020914 31 118 0.0 0.0 0.00 0.00 0.00 60 1013.5
20260906020409 31 129 0.0 0.0 0.00 0.00 0.00 60 1013.5
20260906015903 31 131 0.0 0.0 0.00 0.00 0.00 59 1013.5
20260906015402 31 132 0.0 0.0 0.00 0.00 0.00 58 1013.5
20260906014856 32 120 1.6 1.6 0.00 0.00 0.00 57 1013.5
20260906014351 31 134 0.0 0.0 0.00 0.00 0.00 57 1013.5
20260906013847 32 131 0.0 0.0 0.00 0.00 0.00 56 1013.2
20260906013343 32 131 0.0 0.0 0.00 0.00 0.00 55 1013.2
20260906012838 32 134 0.0 0.0 0.00 0.00 0.00 53 1013.2
20260906012333 32 139 0.0 0.0 0.00 0.00 0.00 53 1013.2
20260906011833 32 136 0.0 0.0 0.00 0.00 0.00 52 1012.8
20260906011328 32 134 0.0 0.0 0.00 0.00 0.00 52 1012.8
20260906010824 33 138 0.0 0.0 0.00 0.00 0.00 52 1013.2
20260906010319 33 137 0.0 0.0 0.00 0.00 0.00 52 1013.2
20260906005815 33 137 0.0 0.0 0.00 0.00 0.00 51 1012.8
20260906005314 33 137 0.0 0.0 0.00 0.00 0.00 51 1013.2
20260906004813 33 138 0.0 0.0 0.00 0.00 0.00 50 1013.2
20260906004313 33 137 0.0 0.0 0.00 0.00 0.00 49 1012.8
20260906003808 34 134 0.0 0.0 0.00 0.00 0.00 49 1012.8
20260906003303 34 133 0.0 0.0 0.00 0.00 0.00 48 1013.2
20260906002759 34 136 0.0 1.6 0.00 0.00 0.00 48 1012.8
20260906002258 35 134 0.0 0.0 0.00 0.00 0.00 47 1012.8
20260906001754 35 129 0.0 0.0 0.00 0.00 0.00 46 1012.8
20260906001248 35 134 1.6 1.6 0.00 0.00 0.00 46 1012.8
20260906000744 35 137 1.6 3.2 0.00 0.00 0.00 45 1012.8
20260906000238 35 123 0.0 0.0 0.00 0.00 0.00 45 1012.8
20260905235733 36 140 0.0 0.0 0.00 0.00 0.00 44 1012.8
20260905235233 36 119 0.0 0.0 0.00 0.00 0.00 42 1013.2
20260905234729 36 160 0.0 0.0 0.00 0.00 0.00 42 1012.8
20260905234224 36 135 6.4 8.0 0.00 0.00 0.00 42 1013.2
20260905233719 36 132 0.0 1.6 0.00 0.00 0.00 41 1012.8
20260905233218 36 127 0.0 0.0 0.00 0.00 0.00 42 1013.2
20260905232713 36 151 3.2 4.8 0.00 0.00 0.00 42 1012.8
20260905232209 37 147 0.0 1.6 0.00 0.00 0.00 41 1012.8
20260905231705 37 151 1.6 1.6 0.00 0.00 0.00 41 1012.8
20260905231200 37 154 6.4 8.0 0.00 0.00 0.00 40 1012.8
20260905230656 37 167 3.2 4.8 0.00 0.00 0.00 40 1012.8
20260905230154 37 163 1.6 1.6 0.00 0.00 0.00 40 1012.8
20260905225653 37 143 0.0 0.0 0.00 0.00 0.00 41 1012.8
20260905225148 37 144 1.6 1.6 0.00 0.00 0.00 41 1012.5
20260905224648 36 143 0.0 0.0 0.00 0.00 0.00 41 1012.8
20260905224142 37 174 3.2 3.2 0.00 0.00 0.00 42 1012.5
20260905223639 37 137 0.0 0.0 0.00 0.00 0.00 41 1012.8
20260905223136 37 120 0.0 1.6 0.00 0.00 0.00 41 1013.2
20260905222631 36 135 0.0 0.0 0.00 0.00 0.00 42 1012.8
20260905222126 37 131 1.6 1.6 0.00 0.00 0.00 42 1012.8
20260905221621 38 143 0.0 0.0 0.00 0.00 0.00 40 1013.2
20260905221118 37 139 0.0 0.0 0.00 0.00 0.00 40 1013.2
20260905220613 37 125 0.0 0.0 0.00 0.00 0.00 42 1013.2
20260905220109 37 133 0.0 0.0 0.00 0.00 0.00 43 1013.2
20260905215609 37 122 1.6 1.6 0.00 0.00 0.00 41 1013.2
20260905215104 37 137 0.0 0.0 0.00 0.00 0.00 41 1012.8
20260905214601 37 139 0.0 0.0 0.00 0.00 0.00 40 1013.2
20260905214100 37 163 1.6 1.6 0.00 0.00 0.00 40 1013.2
20260905213556 37 153 0.0 0.0 0.00 0.00 0.00 40 1013.2
20260905213051 36 186 4.8 4.8 0.00 0.00 0.00 42 1013.2
20260905212551 36 266 0.0 0.0 0.00 0.00 0.00 42 1013.2
20260905212050 36 152 0.0 0.0 0.00 0.00 0.00 42 1013.5
20260905211546 36 144 0.0 0.0 0.00 0.00 0.00 42 1013.5
20260905211041 36 171 4.8 4.8 0.00 0.00 0.00 42 1013.5
20260905210537 38 146 1.6 3.2 0.00 0.00 0.00 40 1013.5
20260905210032 37 144 0.0 1.6 0.00 0.00 0.00 39 1013.5
20260905205532 38 45 4.8 4.8 0.00 0.00 0.00 40 1013.5
20260905205031 37 107 0.0 0.0 0.00 0.00 0.00 40 1013.9
20260905204526 37 139 0.0 0.0 0.00 0.00 0.00 42 1013.9
20260905204021 38 158 1.6 3.2 0.00 0.00 0.00 40 1013.9
20260905203520 36 159 0.0 0.0 0.00 0.00 0.00 41 1013.9
20260905203016 37 109 1.6 3.2 0.00 0.00 0.00 42 1014.5
20260905202511 37 172 4.8 4.8 0.00 0.00 0.00 41 1013.9
20260905202007 36 154 3.2 4.8 0.00 0.00 0.00 41 1014.2
20260905201503 37 141 0.0 1.6 0.00 0.00 0.00 40 1014.2
20260905201002 38 158 0.0 3.2 0.00 0.00 0.00 38 1014.2
20260905200458 37 126 1.6 3.2 0.00 0.00 0.00 40 1014.2
20260905195956 37 187 0.0 0.0 0.00 0.00 0.00 41 1014.2
20260905195451 36 166 0.0 0.0 0.00 0.00 0.00 43 1014.2
20260905194947 37 151 3.2 3.2 0.00 0.00 0.00 43 1014.5
20260905194446 36 166 0.0 0.0 0.00 0.00 0.00 42 1015.0
20260905193941 36 154 0.0 0.0 0.00 0.00 0.00 44 1014.5
20260905193441 37 154 1.6 4.8 0.00 0.00 0.00 42 1014.5
20260905192936 38 192 4.8 8.0 0.00 0.00 0.00 40 1014.5
20260905192431 37 158 3.2 3.2 0.00 0.00 0.00 41 1015.0
20260905191926 37 147 0.0 0.0 0.00 0.00 0.00 41 1015.0
20260905191425 36 182 1.6 4.8 0.00 0.00 0.00 43 1015.0
20260905190920 37 171 1.6 1.6 0.00 0.00 0.00 43 1015.0
20260905190418 37 165 0.0 0.0 0.00 0.00 0.00 42 1015.0
20260905185917 36 176 3.2 3.2 0.00 0.00 0.00 43 1015.0
20260905185412 37 158 1.6 3.2 0.00 0.00 0.00 43 1015.0
20260905184910 37 63 0.0 0.0 0.00 0.00 0.00 43 1015.0
20260905184405 36 148 0.0 0.0 0.00 0.00 0.00 42 1015.3
20260905183903 36 256 3.2 8.0 0.00 0.00 0.00 44 1015.3
20260905183358 36 166 0.0 0.0 0.00 0.00 0.00 45 1015.7
20260905182853 36 152 0.0 0.0 0.00 0.00 0.00 43 1015.7